Weather History for Cincinnati, OH

Change the Weather History Date:

Monday, December 2, 2013

  Actual Average Record
Temperature  
Mean Temperature 44 °F -  
Max Temperature 51 °F 45 °F 74 °F (1982)
Min Temperature 37 °F 30 °F 12 °F (1976)
Degree Days  
Heating Degree Days 21    
Moisture  
Dew Point 37 °F    
Average Humidity 78    
Maximum Humidity 96    
Minimum Humidity 59    
Precipitation  
Precipitation 0.00 in - - ()
Sea Level Pressure  
Sea Level Pressure 29.88 in    
Wind  
Wind Speed 1 mph (NNE)    
Max Wind Speed 6 mph    
Max Gust Speed -    
Visibility 9 miles    
Events Rain    
Averages and records for this station are not official NWS values.
T = Trace of Precipitation, MM = Missing Value Source: NWS Daily Summary

Daily Weather History Graph

Daily Weather History Graph

Search for Another Location

Airport:

Trip Planner

Search our weather history database for the weather conditions in past years. The results will help you decide how hot, cold, wet, or windy it might be!

Date:

Astronomy

Dec. 02, 2013 Rise Set
Actual Time 7:39 AM EST 5:15 PM EST
Civil Twilight 7:09 AM EST 5:44 PM EST
Nautical Twilight 6:36 AM EST 6:18 PM EST
Astronomical Twilight 6:03 AM EST 6:50 PM EST
Moon 7:03 AM EST (12/2) 5:17 PM EST (12/2)
Length of Visible Light 10h 35m
Length of Day
9h 36m
Waning Crescent, 0% of the Moon is Illuminated
Dec 2
Waning Crescent
Dec 2
New
Dec 9
First Quarter
Dec 17
Full
Dec 25
Last Quarter

Hourly Weather History & Observations

Time (EST) Temp. Windchill Dew Point Humidity Pressure Visibility Wind Dir Wind Speed Gust Speed Precip Events Conditions
12:53 AM 42.1 °F - 36.0 °F 79% 29.96 in 10.0 mi Calm Calm - N/A   Overcast
1:53 AM 43.0 °F - 36.0 °F 76% 29.96 in 10.0 mi Calm Calm - N/A   Overcast
2:53 AM 41.0 °F - 37.0 °F 86% 29.94 in 10.0 mi Calm Calm - N/A   Overcast
3:53 AM 41.0 °F - 36.0 °F 82% 29.94 in 10.0 mi Calm Calm - N/A   Overcast
4:53 AM 39.9 °F - 36.0 °F 86% 29.92 in 10.0 mi Calm Calm - N/A   Overcast
5:53 AM 37.0 °F - 35.1 °F 93% 29.92 in 10.0 mi Calm Calm - N/A   Clear
6:53 AM 37.9 °F - 35.1 °F 89% 29.92 in 10.0 mi Calm Calm - N/A   Mostly Cloudy
7:53 AM 37.0 °F - 35.1 °F 93% 29.92 in 10.0 mi Calm Calm - N/A   Mostly Cloudy
8:53 AM 37.0 °F - 36.0 °F 96% 29.93 in 10.0 mi Calm Calm - N/A   Mostly Cloudy
9:53 AM 41.0 °F 39.0 °F 36.0 °F 82% 29.92 in 10.0 mi West 3.5 mph - N/A   Scattered Clouds
10:53 AM 44.1 °F - 37.0 °F 76% 29.91 in 10.0 mi Calm Calm - N/A   Overcast
11:53 AM 46.9 °F - 37.0 °F 68% 29.89 in 10.0 mi Calm Calm - N/A   Mostly Cloudy
12:53 PM 48.9 °F - 37.0 °F 64% 29.85 in 10.0 mi Calm Calm - N/A   Overcast
1:53 PM 51.1 °F - 37.0 °F 59% 29.83 in 10.0 mi NW 4.6 mph - N/A   Partly Cloudy
2:53 PM 51.1 °F - 37.9 °F 61% 29.82 in 10.0 mi Calm Calm - N/A   Overcast
3:53 PM 51.1 °F - 39.0 °F 63% 29.81 in 10.0 mi Calm Calm - N/A   Mostly Cloudy
4:53 PM 51.1 °F - 37.0 °F 59% 29.81 in 10.0 mi Calm Calm - N/A   Overcast
5:53 PM 48.0 °F - 37.9 °F 68% 29.82 in 10.0 mi NE 3.5 mph - N/A   Overcast
6:53 PM 46.9 °F - 37.9 °F 71% 29.83 in 10.0 mi NE 3.5 mph - N/A   Overcast
7:53 PM 46.9 °F - 39.0 °F 74% 29.83 in 10.0 mi NE 5.8 mph - 0.00 in Rain Light Rain
8:53 PM 45.0 °F 42.6 °F 39.9 °F 82% 29.83 in 8.0 mi NNE 4.6 mph - 0.00 in   Overcast
9:53 PM 45.0 °F 43.5 °F 39.9 °F 82% 29.84 in 7.0 mi NNE 3.5 mph - 0.00 in Rain Light Rain
10:53 PM 43.0 °F 41.3 °F 39.9 °F 89% 29.84 in 6.0 mi NNE 3.5 mph - 0.00 in   Overcast
11:53 PM 41.0 °F - 39.9 °F 96% 29.84 in 4.0 mi Calm Calm - N/A   Overcast